Location: Acton
(51.4942°N, 0.2232°W)
Time: 22:48:08
(UTC+00:00)

Cosmos 1513 Rocket - Pass Details

Date: 18 September 2020
Orbit: 939 x 1009 km, 82.9° (Epoch: 30 October)

Event Time Altitude Azimuth Distance (km) Brightness Sun altitude
Rises 19:34:50 0° 185° (S) 3,690 7.4 -14.1°
Reaches altitude 10° 19:37:21 10° 185° (S) 2,737 6.7 -14.5°
Maximum altitude 19:43:38 84° 99° (E) 985 4.4 -15.4°
Drops below altitude 10° 19:49:51 10° 11° (N) 2,706 7.0 -16.2°
Sets 19:52:20 0° 11° (N) 3,647 7.7 -16.6°
